EDW22 MDPP-MKJS

Flight info

Callsign EDW22
Flight time 1h 21m
Altitude 40000
Route RETAK3C RETAK DCT SINKA UM594 GABUN/N0462F410 UM594 KEBET/N0462F400 DCT SIA LENAR7
Aircraft A343/H-SDE2E3FGHIJ4J5M1RWXY/LB1D1

Departure

Time 2026-04-27 16:57
Airport Gregorio Luperon International Airport (MDPP)

Arrival

Time 2026-04-27 18:18
Airport Sangster International Airport (MKJS)
Time Latitude Longitude Altitude Speed Heading
2026-04-27 15:56 19.75630 -70.56415 38 ft 0 kts 208°
2026-04-27 16:45 19.75634 -70.56413 39 ft 4 kts 206°
2026-04-27 16:45 19.75658 -70.56405 36 ft 4 kts 169°
2026-04-27 16:45 19.75681 -70.56416 35 ft 4 kts 164°
2026-04-27 16:46 19.75699 -70.56413 37 ft 4 kts 216°
2026-04-27 16:46 19.75714 -70.56393 35 ft 4 kts 256°
2026-04-27 16:46 19.75718 -70.56368 35 ft 1 kts 263°
2026-04-27 16:46 19.75718 -70.56367 35 ft 0 kts 263°
2026-04-27 16:49 19.75718 -70.56371 35 ft 2 kts 263°
2026-04-27 16:49 19.75713 -70.56399 35 ft 6 kts 257°
2026-04-27 16:49 19.75698 -70.56450 37 ft 8 kts 252°
2026-04-27 16:50 19.75678 -70.56517 39 ft 10 kts 252°
2026-04-27 16:50 19.75654 -70.56598 39 ft 12 kts 252°
2026-04-27 16:50 19.75625 -70.56692 39 ft 14 kts 252°
2026-04-27 16:50 19.75594 -70.56799 39 ft 16 kts 252°
2026-04-27 16:51 19.75558 -70.56918 39 ft 18 kts 252°
2026-04-27 16:51 19.75531 -70.57014 38 ft 10 kts 257°
2026-04-27 16:51 19.75558 -70.57075 38 ft 10 kts 314°
2026-04-27 16:51 19.75613 -70.57133 38 ft 12 kts 314°
2026-04-27 16:52 19.75673 -70.57198 37 ft 10 kts 314°
2026-04-27 16:52 19.75705 -70.57270 37 ft 12 kts 271°
2026-04-27 16:52 19.75682 -70.57358 37 ft 13 kts 253°
2026-04-27 16:52 19.75654 -70.57458 37 ft 15 kts 253°
2026-04-27 16:53 19.75621 -70.57573 36 ft 17 kts 253°
2026-04-27 16:53 19.75585 -70.57697 38 ft 18 kts 253°
2026-04-27 16:53 19.75549 -70.57823 40 ft 18 kts 252°
2026-04-27 16:53 19.75510 -70.57955 40 ft 19 kts 252°
2026-04-27 16:54 19.75470 -70.58095 41 ft 20 kts 253°
2026-04-27 16:54 19.75432 -70.58226 40 ft 16 kts 253°
2026-04-27 16:54 19.75399 -70.58309 40 ft 10 kts 227°
2026-04-27 16:54 19.75364 -70.58357 40 ft 6 kts 248°
2026-04-27 16:55 19.75375 -70.58376 40 ft 1 kts 332°
2026-04-27 16:55 19.75384 -70.58372 40 ft 1 kts 22°
2026-04-27 16:55 19.75397 -70.58352 40 ft 5 kts 62°
2026-04-27 16:55 19.75402 -70.58336 40 ft 0 kts 73°
2026-04-27 16:56 19.75402 -70.58335 40 ft 0 kts 73°
2026-04-27 16:56 19.75402 -70.58333 40 ft 3 kts 73°
2026-04-27 16:56 19.75471 -70.58092 41 ft 69 kts 73°
2026-04-27 16:56 19.75674 -70.57387 37 ft 128 kts 73°
2026-04-27 16:57 19.75984 -70.56327 202 ft 163 kts 70°
2026-04-27 16:57 19.76343 -70.55179 832 ft 166 kts 70°
2026-04-27 16:57 19.76734 -70.53987 1366 ft 183 kts 71°
2026-04-27 16:57 19.77212 -70.52612 1720 ft 212 kts 63°
2026-04-27 16:58 19.78373 -70.51510 2134 ft 243 kts 22°
2026-04-27 16:58 19.80040 -70.50968 2948 ft 256 kts 14°
2026-04-27 16:58 19.81789 -70.50498 3952 ft 262 kts 14°
2026-04-27 16:58 19.83573 -70.49992 4918 ft 270 kts 15°
2026-04-27 16:59 19.85413 -70.49458 5602 ft 277 kts 13°
2026-04-27 16:59 19.87352 -70.49280 6463 ft 284 kts 355°
2026-04-27 16:59 19.89254 -70.49854 7380 ft 287 kts 329°
2026-04-27 16:59 19.90696 -70.51283 8319 ft 286 kts 299°
2026-04-27 17:00 19.91255 -70.54628 9942 ft 280 kts 256°
2026-04-27 17:00 19.90661 -70.57400 10749 ft 301 kts 255°
2026-04-27 17:00 19.90204 -70.59650 11113 ft 322 kts 257°
2026-04-27 17:01 19.89790 -70.62046 11601 ft 337 kts 258°
2026-04-27 17:01 19.89437 -70.64502 12274 ft 344 kts 261°
2026-04-27 17:01 19.89396 -70.67102 13019 ft 352 kts 274°
2026-04-27 17:01 19.89862 -70.69679 13814 ft 358 kts 282°
2026-04-27 17:02 19.90520 -70.72248 14526 ft 362 kts 284°
2026-04-27 17:02 19.91213 -70.74790 15259 ft 364 kts 284°
2026-04-27 17:02 19.91931 -70.77378 16020 ft 367 kts 284°
2026-04-27 17:02 19.92658 -70.79982 16810 ft 369 kts 284°
2026-04-27 17:03 19.93391 -70.82604 17584 ft 371 kts 285°
2026-04-27 17:03 19.94132 -70.85250 18348 ft 374 kts 285°
2026-04-27 17:03 19.94877 -70.87910 18995 ft 377 kts 285°
2026-04-27 17:03 19.95628 -70.90595 19633 ft 380 kts 285°
2026-04-27 17:04 19.96384 -70.93296 20250 ft 383 kts 285°
2026-04-27 17:04 19.97146 -70.96023 20878 ft 386 kts 284°
2026-04-27 17:04 19.97915 -70.98774 21485 ft 389 kts 284°
2026-04-27 17:04 19.98688 -71.01541 22091 ft 392 kts 284°
2026-04-27 17:05 19.99468 -71.04334 22709 ft 395 kts 284°
2026-04-27 17:05 20.00252 -71.07145 23306 ft 398 kts 284°
2026-04-27 17:05 20.01043 -71.09984 23850 ft 401 kts 284°
2026-04-27 17:05 20.01570 -71.11873 24179 ft 403 kts 284°
2026-04-27 17:06 20.02642 -71.15701 24871 ft 405 kts 285°
2026-04-27 17:06 20.03533 -71.18552 25383 ft 407 kts 286°
2026-04-27 17:06 20.04457 -71.21410 25906 ft 408 kts 286°
2026-04-27 17:06 20.05377 -71.24273 26391 ft 410 kts 285°
2026-04-27 17:07 20.06295 -71.27149 26864 ft 412 kts 285°
2026-04-27 17:07 20.07200 -71.30000 27326 ft 413 kts 285°
2026-04-27 17:07 20.08118 -71.32904 27787 ft 415 kts 285°
2026-04-27 17:07 20.09038 -71.35819 28235 ft 417 kts 285°
2026-04-27 17:08 20.09962 -71.38752 28674 ft 418 kts 284°
2026-04-27 17:08 20.10890 -71.41701 29093 ft 420 kts 284°
2026-04-27 17:08 20.11820 -71.44657 29523 ft 422 kts 284°
2026-04-27 17:08 20.12754 -71.47628 29930 ft 424 kts 284°
2026-04-27 17:09 20.13691 -71.50615 30289 ft 426 kts 284°
2026-04-27 17:09 20.14631 -71.53609 30658 ft 427 kts 284°
2026-04-27 17:09 20.15572 -71.56608 30998 ft 428 kts 284°
2026-04-27 17:09 20.16518 -71.59628 31273 ft 431 kts 283°
2026-04-27 17:10 20.17465 -71.62670 31559 ft 433 kts 283°
2026-04-27 17:10 20.18219 -71.65760 31861 ft 430 kts 276°
2026-04-27 17:10 20.18553 -71.68900 32284 ft 424 kts 268°
2026-04-27 17:10 20.18443 -71.72011 32743 ft 418 kts 261°
2026-04-27 17:11 20.17913 -71.75031 33218 ft 414 kts 254°
2026-04-27 17:11 20.16401 -71.80896 34081 ft 408 kts 252°
2026-04-27 17:11 20.15606 -71.83744 34469 ft 406 kts 251°
2026-04-27 17:12 20.13994 -71.89492 35030 ft 406 kts 251°
2026-04-27 17:12 20.13194 -71.92378 35294 ft 407 kts 252°
2026-04-27 17:12 20.12397 -71.95272 35476 ft 409 kts 252°
2026-04-27 17:13 20.11601 -71.98180 35734 ft 409 kts 252°
2026-04-27 17:13 20.10807 -72.01084 36043 ft 408 kts 252°
2026-04-27 17:13 20.10015 -72.03988 36325 ft 408 kts 252°
2026-04-27 17:13 20.09224 -72.06885 36599 ft 408 kts 252°
2026-04-27 17:14 20.08433 -72.09778 36871 ft 408 kts 252°
2026-04-27 17:14 20.07641 -72.12673 37144 ft 407 kts 252°
2026-04-27 17:14 20.06849 -72.15565 37408 ft 407 kts 252°
2026-04-27 17:14 20.06056 -72.18455 37678 ft 407 kts 252°
2026-04-27 17:15 20.05263 -72.21343 37946 ft 406 kts 252°
2026-04-27 17:15 20.04472 -72.24226 38212 ft 406 kts 252°
2026-04-27 17:15 20.03679 -72.27109 38463 ft 407 kts 252°
2026-04-27 17:15 20.02882 -72.30005 38603 ft 409 kts 252°
2026-04-27 17:16 20.02084 -72.32904 38814 ft 409 kts 252°
2026-04-27 17:16 20.01285 -72.35806 39021 ft 409 kts 252°
2026-04-27 17:16 20.00495 -72.38676 39215 ft 409 kts 252°
2026-04-27 17:16 19.99695 -72.41576 39402 ft 409 kts 252°
2026-04-27 17:17 19.98893 -72.44482 39577 ft 409 kts 252°
2026-04-27 17:17 19.98092 -72.47386 39763 ft 409 kts 252°
2026-04-27 17:17 19.97291 -72.50282 39930 ft 409 kts 253°
2026-04-27 17:18 19.95672 -72.56136 40037 ft 416 kts 253°
2026-04-27 17:18 19.94855 -72.59083 40034 ft 416 kts 253°
2026-04-27 17:18 19.93225 -72.64965 40017 ft 415 kts 253°
2026-04-27 17:19 19.91590 -72.70857 40033 ft 416 kts 253°
2026-04-27 17:19 19.89948 -72.76761 40032 ft 417 kts 253°
2026-04-27 17:20 19.88305 -72.82662 40032 ft 417 kts 253°
2026-04-27 17:20 19.86480 -72.88503 40032 ft 417 kts 246°
2026-04-27 17:21 19.83437 -72.93721 40040 ft 418 kts 231°
2026-04-27 17:21 19.79582 -72.98351 40035 ft 420 kts 229°
2026-04-27 17:22 19.75566 -73.02871 40031 ft 421 kts 228°
2026-04-27 17:22 19.71372 -73.07229 40031 ft 422 kts 226°
2026-04-27 17:23 19.67144 -73.11556 40030 ft 422 kts 227°
2026-04-27 17:23 19.63003 -73.15963 40031 ft 421 kts 229°
2026-04-27 17:24 19.59046 -73.20491 40030 ft 421 kts 229°
2026-04-27 17:24 19.55081 -73.25057 40026 ft 421 kts 229°
2026-04-27 17:25 19.51084 -73.29611 40030 ft 421 kts 229°
2026-04-27 17:25 19.47056 -73.34133 40029 ft 423 kts 228°
2026-04-27 17:26 19.42947 -73.38616 40027 ft 424 kts 228°
2026-04-27 17:26 19.38827 -73.43100 40028 ft 424 kts 228°
2026-04-27 17:27 19.35412 -73.46830 40018 ft 424 kts 228°
2026-04-27 17:27 19.31309 -73.51320 40028 ft 424 kts 228°
2026-04-27 17:28 19.27175 -73.55785 40023 ft 424 kts 227°
2026-04-27 17:29 19.20917 -73.62404 40025 ft 424 kts 227°
2026-04-27 17:29 19.16747 -73.66821 40025 ft 424 kts 227°
2026-04-27 17:30 19.12568 -73.71257 40021 ft 426 kts 227°
2026-04-27 17:30 19.06280 -73.77929 40006 ft 427 kts 227°
2026-04-27 17:31 19.02089 -73.82371 40024 ft 426 kts 227°
2026-04-27 17:31 18.97893 -73.86814 40023 ft 426 kts 227°
2026-04-27 17:32 18.91630 -73.93448 40024 ft 426 kts 227°
2026-04-27 17:33 18.87602 -73.98031 40025 ft 426 kts 230°
2026-04-27 17:33 18.83653 -74.02691 40024 ft 426 kts 230°
2026-04-27 17:34 18.79666 -74.07354 40027 ft 428 kts 230°
2026-04-27 17:34 18.75552 -74.11906 40031 ft 429 kts 227°
2026-04-27 17:35 18.71378 -74.16348 40029 ft 428 kts 227°
2026-04-27 17:35 18.67194 -74.20814 40031 ft 428 kts 227°
2026-04-27 17:36 18.63028 -74.25295 40027 ft 428 kts 227°
2026-04-27 17:36 18.58861 -74.29786 40027 ft 428 kts 227°
2026-04-27 17:37 18.54694 -74.34276 40013 ft 428 kts 227°
2026-04-27 17:37 18.50525 -74.38764 40018 ft 429 kts 227°
2026-04-27 17:38 18.46332 -74.43273 40018 ft 431 kts 227°
2026-04-27 17:38 18.42161 -74.47755 40014 ft 430 kts 227°
2026-04-27 17:39 18.37943 -74.52284 40020 ft 430 kts 227°
2026-04-27 17:39 18.33779 -74.56751 40014 ft 430 kts 227°
2026-04-27 17:40 18.29586 -74.61247 40016 ft 430 kts 227°
2026-04-27 17:40 18.26207 -74.66365 40018 ft 427 kts 248°
2026-04-27 17:40 18.25395 -74.69366 40011 ft 428 kts 261°
2026-04-27 17:41 18.25242 -74.72496 40010 ft 430 kts 269°
2026-04-27 17:41 18.25477 -74.78794 40021 ft 432 kts 270°
2026-04-27 17:42 18.25741 -74.85114 40020 ft 432 kts 270°
2026-04-27 17:42 18.25991 -74.91433 40016 ft 432 kts 270°
2026-04-27 17:43 18.26236 -74.97758 40017 ft 432 kts 270°
2026-04-27 17:43 18.26476 -75.04033 40012 ft 432 kts 270°
2026-04-27 17:44 18.26714 -75.10357 40014 ft 433 kts 270°
2026-04-27 17:44 18.26952 -75.16705 40015 ft 435 kts 270°
2026-04-27 17:45 18.27188 -75.23065 40009 ft 435 kts 270°
2026-04-27 17:45 18.27422 -75.29422 40021 ft 435 kts 270°
2026-04-27 17:46 18.27654 -75.35783 40019 ft 435 kts 270°
2026-04-27 17:46 18.27884 -75.42141 40020 ft 435 kts 270°
2026-04-27 17:47 18.28111 -75.48505 40019 ft 436 kts 270°
2026-04-27 17:47 18.28337 -75.54886 40006 ft 436 kts 270°
2026-04-27 17:48 18.28562 -75.61271 40016 ft 437 kts 270°
2026-04-27 17:48 18.28784 -75.67655 40011 ft 437 kts 270°
2026-04-27 17:49 18.29004 -75.74042 40013 ft 437 kts 270°
2026-04-27 17:49 18.29222 -75.80429 40018 ft 437 kts 271°
2026-04-27 17:50 18.29436 -75.86786 40018 ft 437 kts 271°
2026-04-27 17:50 18.29616 -75.92140 40014 ft 437 kts 271°
2026-04-27 17:51 18.29772 -75.96857 40013 ft 438 kts 271°
2026-04-27 17:51 18.29983 -76.03255 40018 ft 438 kts 271°
2026-04-27 17:52 18.30192 -76.09654 39835 ft 437 kts 270°
2026-04-27 17:52 18.30395 -76.15908 39623 ft 418 kts 270°
2026-04-27 17:53 18.30492 -76.18961 39157 ft 419 kts 270°
2026-04-27 17:53 18.30590 -76.22040 38660 ft 421 kts 270°
2026-04-27 17:53 18.30687 -76.25127 38083 ft 422 kts 270°
2026-04-27 17:53 18.30784 -76.28210 37576 ft 422 kts 269°
2026-04-27 17:54 18.30881 -76.31294 37066 ft 421 kts 269°
2026-04-27 17:54 18.30978 -76.34382 36555 ft 421 kts 269°
2026-04-27 17:54 18.31073 -76.37460 36017 ft 421 kts 269°
2026-04-27 17:54 18.31169 -76.40547 35480 ft 422 kts 269°
2026-04-27 17:55 18.31263 -76.43631 34895 ft 423 kts 268°
2026-04-27 17:55 18.31358 -76.46735 34256 ft 425 kts 268°
2026-04-27 17:55 18.31451 -76.49818 33478 ft 430 kts 268°
2026-04-27 17:55 18.31545 -76.52972 32685 ft 433 kts 268°
2026-04-27 17:56 18.31640 -76.56143 31901 ft 435 kts 268°
2026-04-27 17:56 18.31736 -76.59339 31225 ft 436 kts 269°
2026-04-27 17:56 18.31832 -76.62510 30676 ft 432 kts 269°
2026-04-27 17:56 18.31926 -76.65663 30119 ft 429 kts 269°
2026-04-27 17:57 18.32019 -76.68795 29480 ft 426 kts 269°
2026-04-27 17:57 18.32110 -76.71896 28914 ft 422 kts 269°
2026-04-27 17:57 18.32199 -76.74967 28361 ft 418 kts 269°
2026-04-27 17:57 18.32287 -76.78007 27807 ft 414 kts 269°
2026-04-27 17:58 18.32373 -76.81018 27255 ft 410 kts 270°
2026-04-27 17:58 18.32459 -76.84011 26702 ft 408 kts 270°
2026-04-27 17:58 18.32543 -76.86988 26149 ft 405 kts 270°
2026-04-27 17:58 18.32626 -76.89950 25605 ft 403 kts 270°
2026-04-27 17:59 18.32709 -76.92894 25044 ft 402 kts 271°
2026-04-27 17:59 18.32791 -76.95827 24486 ft 400 kts 271°
2026-04-27 17:59 18.32873 -76.98751 23929 ft 400 kts 271°
2026-04-27 17:59 18.32954 -77.01678 23324 ft 399 kts 272°
2026-04-27 18:00 18.33034 -77.04587 22734 ft 397 kts 272°
2026-04-27 18:00 18.33114 -77.07489 22177 ft 395 kts 272°
2026-04-27 18:00 18.33192 -77.10373 21628 ft 394 kts 272°
2026-04-27 18:00 18.33270 -77.13209 21088 ft 392 kts 272°
2026-04-27 18:01 18.33347 -77.16073 20541 ft 391 kts 272°
2026-04-27 18:01 18.33423 -77.18928 19998 ft 389 kts 272°
2026-04-27 18:01 18.33498 -77.21765 19455 ft 387 kts 272°
2026-04-27 18:01 18.33573 -77.24592 18918 ft 386 kts 272°
2026-04-27 18:02 18.33647 -77.27411 18374 ft 385 kts 272°
2026-04-27 18:02 18.33721 -77.30224 17781 ft 384 kts 272°
2026-04-27 18:02 18.33794 -77.33023 17228 ft 382 kts 272°
2026-04-27 18:02 18.33867 -77.35814 16671 ft 379 kts 272°
2026-04-27 18:03 18.33938 -77.38584 16111 ft 378 kts 272°
2026-04-27 18:03 18.34009 -77.41340 15565 ft 376 kts 272°
2026-04-27 18:03 18.34080 -77.44100 15007 ft 375 kts 272°
2026-04-27 18:03 18.34149 -77.46805 14464 ft 374 kts 272°
2026-04-27 18:04 18.34218 -77.49541 13912 ft 374 kts 271°
2026-04-27 18:04 18.34286 -77.52275 13298 ft 373 kts 271°
2026-04-27 18:04 18.34354 -77.54994 12738 ft 371 kts 271°
2026-04-27 18:04 18.34421 -77.57701 12187 ft 369 kts 271°
2026-04-27 18:05 18.34487 -77.60391 11638 ft 367 kts 271°
2026-04-27 18:05 18.34528 -77.63065 11158 ft 363 kts 269°
2026-04-27 18:05 18.34415 -77.65702 10672 ft 360 kts 266°
2026-04-27 18:05 18.34267 -77.68307 10403 ft 350 kts 266°
2026-04-27 18:06 18.34133 -77.70815 10284 ft 337 kts 266°
2026-04-27 18:06 18.34012 -77.73227 10166 ft 324 kts 266°
2026-04-27 18:06 18.33900 -77.75560 10036 ft 314 kts 266°
2026-04-27 18:06 18.33795 -77.77817 9870 ft 305 kts 266°
2026-04-27 18:07 18.33694 -77.80038 9533 ft 304 kts 266°
2026-04-27 18:07 18.33593 -77.82252 9239 ft 301 kts 266°
2026-04-27 18:07 18.33495 -77.84443 8939 ft 298 kts 266°
2026-04-27 18:07 18.33396 -77.86622 8592 ft 297 kts 267°
2026-04-27 18:08 18.33297 -77.88789 8255 ft 295 kts 267°
2026-04-27 18:08 18.33199 -77.90935 7910 ft 294 kts 267°
2026-04-27 18:08 18.33103 -77.93082 7566 ft 293 kts 267°
2026-04-27 18:08 18.33006 -77.95220 7216 ft 293 kts 267°
2026-04-27 18:09 18.32910 -77.97362 6895 ft 291 kts 267°
2026-04-27 18:09 18.32815 -77.99474 6633 ft 287 kts 267°
2026-04-27 18:09 18.32721 -78.01536 6300 ft 284 kts 267°
2026-04-27 18:09 18.32628 -78.03592 5673 ft 279 kts 268°
2026-04-27 18:10 18.32801 -78.05629 5177 ft 283 kts 287°
2026-04-27 18:10 18.33774 -78.07404 4955 ft 279 kts 315°
2026-04-27 18:10 18.35331 -78.08539 4433 ft 270 kts 335°
2026-04-27 18:10 18.37035 -78.09361 3656 ft 268 kts 338°
2026-04-27 18:11 18.38751 -78.10105 3171 ft 260 kts 342°
2026-04-27 18:11 18.40411 -78.10319 2975 ft 225 kts
2026-04-27 18:11 18.41745 -78.09810 2972 ft 186 kts 34°
2026-04-27 18:11 18.42598 -78.08957 2960 ft 155 kts 55°
2026-04-27 18:12 18.43088 -78.08044 2947 ft 136 kts 65°
2026-04-27 18:12 18.43488 -78.07151 2958 ft 135 kts 65°
2026-04-27 18:12 18.43881 -78.06252 2826 ft 136 kts 66°
2026-04-27 18:12 18.44002 -78.05973 2768 ft 135 kts 66°
2026-04-27 18:13 18.44342 -78.05189 2602 ft 135 kts 65°
2026-04-27 18:13 18.44731 -78.04295 2405 ft 134 kts 65°
2026-04-27 18:13 18.45119 -78.03404 2239 ft 134 kts 65°
2026-04-27 18:14 18.45513 -78.02510 2068 ft 135 kts 64°
2026-04-27 18:14 18.45900 -78.01624 1862 ft 132 kts 63°
2026-04-27 18:14 18.46139 -78.01073 1769 ft 132 kts 63°
2026-04-27 18:15 18.46451 -78.00354 1636 ft 132 kts 63°
2026-04-27 18:16 18.46834 -77.99475 1432 ft 131 kts 63°
2026-04-27 18:16 18.47215 -77.98605 1265 ft 130 kts 63°
2026-04-27 18:16 18.47593 -77.97743 1098 ft 130 kts 63°
2026-04-27 18:16 18.47968 -77.96873 916 ft 131 kts 63°
2026-04-27 18:17 18.48337 -77.96003 751 ft 130 kts 63°
2026-04-27 18:17 18.48706 -77.95147 584 ft 126 kts 63°
2026-04-27 18:17 18.49067 -77.94317 418 ft 124 kts 64°
2026-04-27 18:17 18.49421 -77.93498 293 ft 123 kts 63°
2026-04-27 18:18 18.49772 -77.92703 116 ft 120 kts 64°
2026-04-27 18:18 18.50116 -77.91909 24 ft 110 kts 65°
2026-04-27 18:18 18.50359 -77.91352 16 ft 58 kts 65°
2026-04-27 18:18 18.50481 -77.91079 16 ft 25 kts 64°
2026-04-27 18:19 18.50519 -77.90959 18 ft 16 kts 80°
2026-04-27 18:19 18.50531 -77.90839 17 ft 15 kts 88°
2026-04-27 18:19 18.50532 -77.90727 16 ft 13 kts 90°
2026-04-27 18:19 18.50505 -77.90675 15 ft 9 kts 153°
2026-04-27 18:20 18.50452 -77.90704 15 ft 10 kts 236°
2026-04-27 18:20 18.50420 -77.90778 15 ft 12 kts 248°
2026-04-27 18:20 18.50382 -77.90874 15 ft 16 kts 245°
2026-04-27 18:20 18.50332 -77.90989 15 ft 18 kts 245°
2026-04-27 18:21 18.50276 -77.91118 15 ft 20 kts 245°
2026-04-27 18:21 18.50221 -77.91245 14 ft 14 kts 245°
2026-04-27 18:21 18.50186 -77.91315 14 ft 6 kts 220°
2026-04-27 18:21 18.50136 -77.91313 14 ft 8 kts 178°
2026-04-27 18:22 18.50084 -77.91344 14 ft 10 kts 214°
2026-04-27 18:22 18.50040 -77.91366 14 ft 6 kts 191°
2026-04-27 18:22 18.50012 -77.91368 14 ft 2 kts 185°
2026-04-27 18:22 18.50007 -77.91369 14 ft 0 kts 185°